TimeMST,TemperatureF,Dew PointF,Humidity,Sea Level PressureIn,VisibilityMPH,Wind Direction,Wind SpeedMPH,Gust SpeedMPH,PrecipitationIn,Events,Conditions,WindDirDegrees,DateUTC
12:53 AM,8.1,5.0,87,30.03,10.0,SW,4.6,-,N/A,,Clear,220,2013-02-09 07:53:00
1:53 AM,10.9,8.1,88,30.02,9.0,Calm,Calm,-,N/A,,Clear,0,2013-02-09 08:53:00
2:53 AM,10.0,7.0,87,30.01,10.0,WSW,3.5,-,N/A,,Clear,240,2013-02-09 09:53:00
3:23 AM,10.4,6.8,85,29.90,10.0,SW,5.8,-,N/A,,Partly Cloudy,230,2013-02-09 10:23:00
3:53 AM,10.0,6.1,84,30.00,10.0,WSW,4.6,-,N/A,,Clear,240,2013-02-09 10:53:00
4:53 AM,7.0,3.9,87,30.00,10.0,WSW,3.5,-,N/A,,Clear,250,2013-02-09 11:53:00
5:53 AM,8.1,5.0,87,30.01,7.0,SW,3.5,-,N/A,,Clear,220,2013-02-09 12:53:00
6:26 AM,6.8,3.2,85,29.89,8.0,West,5.8,-,N/A,,Scattered Clouds,260,2013-02-09 13:26:00
6:35 AM,6.8,3.2,85,29.89,8.0,WSW,6.9,-,N/A,,Mostly Cloudy,250,2013-02-09 13:35:00
6:53 AM,6.1,3.9,91,30.01,5.0,SW,6.9,-,N/A,,Overcast,230,2013-02-09 13:53:00
7:01 AM,6.8,3.2,85,29.89,1.8,SW,8.1,-,N/A,,Overcast,230,2013-02-09 14:01:00
7:07 AM,6.8,3.2,85,29.89,0.8,WSW,8.1,-,N/A,,Mist,240,2013-02-09 14:07:00
7:18 AM,8.6,5.0,85,29.89,1.2,WSW,8.1,-,N/A,,Overcast,250,2013-02-09 14:18:00
7:26 AM,8.6,6.8,92,29.89,0.8,WSW,8.1,-,N/A,,Mist,240,2013-02-09 14:26:00
7:33 AM,8.6,6.8,92,29.89,1.2,WSW,8.1,-,N/A,,Overcast,250,2013-02-09 14:33:00
7:53 AM,8.1,5.0,87,30.01,1.8,WSW,4.6,-,N/A,,Overcast,240,2013-02-09 14:53:00
8:00 AM,6.8,5.0,92,29.89,2.0,SW,4.6,-,N/A,,Overcast,230,2013-02-09 15:00:00
8:35 AM,8.6,6.8,92,29.88,1.2,WSW,5.8,-,N/A,,Overcast,240,2013-02-09 15:35:00
8:45 AM,10.4,6.8,85,29.88,0.8,WSW,6.9,-,N/A,,Overcast,250,2013-02-09 15:45:00
8:53 AM,10.0,8.1,92,30.00,0.5,WSW,6.9,-,N/A,Fog,Light Freezing Fog,250,2013-02-09 15:53:00
9:53 AM,12.9,12.0,96,29.99,0.5,SW,4.6,-,N/A,Fog,Light Freezing Fog,220,2013-02-09 16:53:00
10:17 AM,15.8,14.0,93,29.88,1.2,SW,5.8,-,N/A,,Overcast,230,2013-02-09 17:17:00
10:30 AM,17.6,15.8,93,29.88,3.0,WSW,4.6,-,N/A,,Overcast,240,2013-02-09 17:30:00
10:36 AM,17.6,15.8,93,29.88,1.8,West,6.9,-,N/A,,Overcast,260,2013-02-09 17:36:00
10:39 AM,17.6,15.8,93,29.88,0.8,WSW,8.1,-,N/A,,Overcast,250,2013-02-09 17:39:00
10:53 AM,18.0,16.0,92,29.99,0.8,West,6.9,-,N/A,,Mist,260,2013-02-09 17:53:00
10:57 AM,19.4,15.8,86,29.87,1.2,West,5.8,-,N/A,,Mostly Cloudy,260,2013-02-09 17:57:00
11:00 AM,19.4,17.6,93,29.87,3.0,WSW,4.6,-,N/A,,Mostly Cloudy,250,2013-02-09 18:00:00
11:11 AM,19.4,17.6,93,29.87,7.0,WSW,4.6,-,N/A,,Scattered Clouds,250,2013-02-09 18:11:00
11:53 AM,21.9,19.9,92,29.96,9.0,WSW,4.6,-,N/A,,Clear,250,2013-02-09 18:53:00
12:53 PM,25.0,21.9,88,29.94,10.0,West,9.2,-,N/A,,Clear,260,2013-02-09 19:53:00
1:53 PM,27.0,23.0,85,29.91,10.0,SW,6.9,-,N/A,,Clear,230,2013-02-09 20:53:00
2:53 PM,30.0,25.0,82,29.90,10.0,SW,6.9,-,N/A,,Scattered Clouds,230,2013-02-09 21:53:00
3:53 PM,30.9,25.0,79,29.89,10.0,SW,6.9,-,N/A,,Mostly Cloudy,220,2013-02-09 22:53:00
4:53 PM,28.9,23.0,78,29.90,9.0,WSW,10.4,-,N/A,,Scattered Clouds,240,2013-02-09 23:53:00
5:53 PM,26.1,21.9,84,29.93,10.0,WSW,5.8,-,N/A,,Overcast,250,2013-02-10 00:53:00
6:53 PM,24.1,19.9,84,29.94,10.0,SW,8.1,-,N/A,,Scattered Clouds,230,2013-02-10 01:53:00
7:53 PM,23.0,19.0,85,29.94,10.0,WSW,8.1,-,N/A,,Mostly Cloudy,240,2013-02-10 02:53:00
8:53 PM,26.1,21.0,81,29.94,10.0,WSW,6.9,-,N/A,,Overcast,250,2013-02-10 03:53:00
9:53 PM,26.1,21.9,84,29.95,10.0,SW,8.1,-,N/A,,Overcast,230,2013-02-10 04:53:00
10:53 PM,26.1,21.9,84,29.95,10.0,WSW,11.5,-,N/A,,Overcast,250,2013-02-10 05:53:00
11:53 PM,25.0,21.9,88,29.94,10.0,West,9.2,-,N/A,,Mostly Cloudy,260,2013-02-10 06:53:00